www.pogodaiklimat.ru

Погода и климат >> Архив погоды >> Пакистан >> Multan


ПОГОДА в Multan

  • Прогноз погоды в Multan
  • Монитор погоды в Multan
  • Климат города

АРХИВ ПОГОДЫ в Multan

Время (UTC), дата Ветер
(напр.,м/с)
 
Видим.   Явления Облачность Т
(С)
Тd
(С)
f
(%)
Тe
(С)
Тes
(С)
Комфортность P
(гПа)
Po
(гПа)
Тmin
(С)
Tmax
(С)
R
(мм)
R24
(мм)
S
(см)
21 12.09 Ю 3 4000 м дым ясно +29.5 +23.0 68 +39 +39 очень
душно
999.2 1000.0
00 13.09 ЮЗ 2 4000 м дым ясно +28.0 +22.1 70 +36 +36 очень
душно
999.2 995.8
03 13.09 Ю 5 4000 м дым 3/0
[Ac trans]
+27.0 +22.6 77 +36 +37 очень
душно
1001.5 987.3 +26.3
06 13.09 ЮЗ 3 4000 м дым 6/4 300 м
[Sc Ac trans]
+30.0 +22.8 65 +40 +46 очень
душно
1003.2 989.0
09 13.09 Ю 2 4000 м дым 1/1 300 м
[Cu hum]
+33.5 +23.5 56 +44 +57 опасность
перегрева
1002.0 1000.0
12 13.09 Ю 2 4000 м дым ясно +34.0 +23.3 54 +45 +47 опасность
перегрева
1000.7 986.5 +34.3
15 13.09 Ю 1 4000 м дым ясно +32.0 +24.2 63 +44 +44 опасность
перегрева
1001.0 982.3
18 13.09 Ю 3 4000 м дым ясно +30.5 +24.1 69 +42 +42 опасность
перегрева
1001.1 986.9
21 13.09 Ю 3 4000 м дым ясно +29.0 +24.0 74 +40 +40 очень
душно
1000.6 1000.0
00 14.09 ЮЗ 3 4000 м дым ясно +27.5 +23.1 77 +37 +37 очень
душно
1000.6 996.5
03 14.09 Ю 2 4000 м дым ясно +27.5 +22.4 74 +36 +40 очень
душно
1003.6 989.4 +26.5
06 14.09 ЮЗ 3 4000 м дым ясно +32.0 +21.8 55 +41 +54 опасность
перегрева
1005.8 991.6
09 14.09 Ю 2 4000 м дым 4/4 300 м
[Sc diur, vesp]
+34.0 +22.5 51 +43 +52 опасность
перегрева
1005.1 1000.0
12 14.09 ЮВ 2 4000 м дым 8/4 300 м
[Sc Ac As]
+33.5 +21.9 51 +42 +43 опасность
перегрева
1004.6 990.4 +34.3
15 14.09 Ю 1 4000 м дым 4/0
[Ac trans]
+32.0 +21.8 55 +41 +41 опасность
перегрева
1004.7 987.2
18 14.09 штиль 0 4000 м дым ясно +31.0 +22.3 60 +40 +40 очень
душно
1004.6 990.4
21 14.09 Ю 2 4000 м дым ясно +29.0 +22.4 68 +38 +38 очень
душно
1003.8 1000.0
00 15.09 ЮЗ 2 4000 м дым ясно +28.0 +22.1 70 +36 +36 очень
душно
1004.5 990.3
03 15.09 Ю 2 4000 м дым 6/6 300 м
[Sc diur, vesp]
+28.5 +21.9 67 +37 +38 очень
душно
1007.5 993.3 +27.3
06 15.09 Ю 1 4000 м дым 9/5 300 м
[Sc Ac As]
+30.5 +22.5 62 +40 +44 очень
душно
1008.6 994.3
09 15.09 С 1 4000 м дым 9/5 300 м
[Sc diur, vesp Ac As]
+32.0 +22.6 58 +42 +45 опасность
перегрева
1007.8 1000.0
12 15.09 СВ 3 4000 м дым 8/4 300 м
[Sc Ac trans]
+31.0 +22.3 60 +40 +41 очень
душно
1007.1 992.9 +32.5
15 15.09 СВ 2 4000 м дым 3/0
[Ac trans]
+28.0 +22.1 70 +36 +36 очень
душно
1008.1 1000.0
18 15.09 С 1 4000 м дым 3/0
[Ac trans]
+26.5 +22.1 77 +34 +34 очень
душно
1008.9 994.6
21 15.09 штиль 0 4000 м дым 9/5 300 м
[Sc Ac As]
+26.0 +22.3 80 +34 +34 очень
душно
1007.7 1000.0
00 16.09 штиль 0 4000 м дым ясно +25.5 +21.8 80 +33 +33 очень
душно
1007.3 993.1
03 16.09 штиль 0 4000 м дым ясно +27.0 +21.0 70 +34 +39 очень
душно
1008.5 994.2 +24.9
06 16.09 СЗ 2 4000 м дым ясно +31.5 +20.3 51 +38 +54 опасность
солнечного
удара
1009.0 994.7
09 16.09 ЮЗ 2 4000 м мгла 3/3 300 м
[Cu hum]
+34.5 +19.6 42 +40 +50 очень
душно
1006.9 1000.0
12 16.09 ЮЗ 2 4000 м мгла ясно +34.0 +20.8 46 +41 +43 опасность
перегрева
1005.0 990.8 +35.3
15 16.09 Ю 1 4000 м дым ясно +31.5 +22.0 57 +40 +40 очень
душно
1005.5 988.3
18 16.09 штиль 0 4000 м дым ясно +30.0 +22.8 65 +40 +40 очень
душно
1005.8 991.6
21 16.09 штиль 0 4000 м дым ясно +28.5 +22.7 71 +38 +38 очень
душно
1005.0 1000.0
00 17.09 Ю 2 4000 м дым ясно +27.5 +22.4 74 +36 +36 очень
душно
1004.9 990.7
06 17.09 ЮЗ 2 4000 м мгла ясно +33.5 +21.0 48 +41 +56 опасность
перегрева
1006.9 992.7
09 17.09 ЮЗ 2 4000 м мгла 3/3 300 м
[Cu med, cong]
+36.0 +20.6 41 +43 +52 опасность
перегрева
1004.7 1000.0
12 17.09 ЮЗ 4 4000 м мгла 1/1 1200 м
[Sc]
+35.0 +23.2 51 +46 +47 опасность
перегрева
1004.0 989.8 +36.7
15 17.09 Ю 2 4000 м дым ясно +32.0 +21.8 55 +41 +41 опасность
перегрева
1004.6 987.1
18 17.09 штиль 0 4000 м дым ясно +30.5 +22.5 62 +40 +40 очень
душно
1005.0 990.8
21 17.09 Ю 1 4000 м дым ясно +29.0 +22.4 68 +38 +38 очень
душно
1004.0 1000.0
00 18.09 Ю 2 4000 м дым ясно +27.5 +21.6 70 +35 +35 очень
душно
1004.2 990.0
03 18.09 Ю 2 2000 м дым ясно +28.0 +21.3 67 +35 +39 очень
душно
1005.4 991.2 +26.7
06 18.09 ЮЗ 2 4000 м мгла ясно +34.0 +21.6 48 +42 +58 опасность
перегрева
1006.7 992.4
09 18.09 ЮЗ 3 4000 м мгла ясно +38.0 +20.4 36 +44 +56 опасность
перегрева
1004.1 1000.0
12 18.09 ЮЗ 3 4000 м мгла ясно +37.0 +20.0 37 +43 +44 опасность
перегрева
1003.0 1003.0 +38.2
15 18.09 ЮЗ 2 4000 м дым ясно +33.0 +23.0 56 +43 +43 опасность
перегрева
1003.6 1000.0
18 18.09 Ю 2 4000 м дым ясно +31.0 +20.6 54 +38 +38 очень
душно
1004.1 989.9
21 18.09 ЮВ 2 4000 м дым ясно +29.5 +18.8 53 +35 +35 очень
душно
1003.4 987.7
00 19.09 штиль 0 2000 м дым ясно +27.5 +19.9 63 +33 +33 очень
душно
1003.7 989.5
03 19.09 ЮЗ 2 2000 м дым ясно +27.0 +20.2 66 +33 +36 очень
душно
1005.5 991.3 +25.9
06 19.09 З 2 4000 м дым ясно +33.0 +21.3 50 +41 +57 опасность
перегрева
1006.3 992.0
09 19.09 ЮЗ 2 4000 м мгла ясно +37.5 +20.7 38 +44 +58 опасность
перегрева
1003.8 1000.0
12 19.09 ЮЗ 2 4000 м мгла ясно +37.5 +19.8 36 +43 +45 опасность
перегрева
1002.2 988.0 +38.7
15 19.09 ЮЗ 2 4000 м мгла ясно +34.0 +20.8 46 +41 +41 опасность
перегрева
1003.0 1000.0
18 19.09 Ю 1 4000 м дым ясно +31.0 +19.7 51 +37 +37 очень
душно
1003.4 989.2

 

Местоположение метеостанции Multan (Пакистан): широта 30.20 долгота 71.43 высота над уровнем моря 123 м.

В архиве по умолчанию представлена погода в Multan за последнюю неделю. Архивные данные за месяц целиком и за предыдущие месяцы, начиная с января 2011 года, Вы можете получить, выбрав интересующий диапазон дат из раскрывающегося списка и нажав кнопку "Ввод!".


*Определитесь, кто Вы:
робот инопланетянин человек

Внимание! Время в таблицах - всемирное. Для получения местного времени необходимо прибавить поправку, которая в Multan равна 5 ч.

Смотрите также архив погоды в соседних городах и на ближайших метеорологических станциях:

Погода в Bahawalpur (Пакистан) (95 км)
Погода в Raifiqui Airbase (Пакистан) (98 км)
Погода в Barkhan (Пакистан) (168 км)
Погода в Bahawalnagar (Пакистан) (177 км)
Погода в Dera Ismail Khan (Пакистан) (187 км)
Погода в Khanpur (Пакистан) (187 км)
Погода в Faisal Abad (Пакистан) (210 км)
Погода в Zhob (Пакистан) (227 км)
Погода в Sargodha (Пакистан) (237 км)
Погода в Sri Ganganagar (Rajasthan, Индия) (239 км)

Пояснения к столбцам:

Ветер - указаны скорость ветра в м/с - средняя за 10 мин, порывы в срок и между сроками (в фигурных скобках) и направление, откуда дует ветер: С - северный, СВ - северо-восточный, В - восточный, ЮВ - юго-восточный, Ю - южный, ЮЗ - юго-западный, З - западный, СЗ - северо-западный.
Видимость - горизонтальная дальность видимости в метрах или километрах. При видимости от 1 до 10 км при отсутствии осадков обычно наблюдается дымка, при ухудшении видимости до 1 км и менее - туман. В сухую погоду видимость может ухудшаться дымом, пылью или мглою.
Явления - указаны атмосферные явления, наблюдавшиеся в срок или в последний час перед сроком; фигурными скобками обозначены явления, наблюдавшиеся между сроками (за 1-3 часа до срока); квадратными скобками обозначены град или гололедные отложения с указанием их диаметра в мм.
Облачность - указаны через наклонную черту общая и нижняя облачность в баллах и высота нижней границы облаков в метрах; квадратными скобками обозначены формы облаков: Ci - перистые, Cs - перисто-слоистые, Cc - перисто-кучевые, Ac - высококучевые, As - высокослоистые, Sc - слоисто-кучевые, Ns - слоисто-дождевые, Cu - кучевые, Cb - кучево-дождевые. Подробнее классификацию облаков см. в Атласе облаков (PDF).
T - Температура воздуха - температура, измеренная на высоте 2 м над землей.
Td - Температура точки росы - температура, при понижении до которой содержащийся в воздухе водяной пар достигнет насыщения.
f - Относительная влажность воздуха - влажноcть воздуха, измеренная на высоте 2 м над землей.
Te - Эффективная температура - температура, которую ощущает одетый по сезону человек в тени. Характеристика душности погоды. При расчете учитывается влияние влажности воздуха и скорости ветра на теплоощущения человека.
Tes - Эффективная температура на солнце - температура, которую ощущает человек, с поправкой на солнечный нагрев. Характеристика знойности погоды. Зависит от высоты солнца над горизонтом, облачности и скорости ветра. Ночью, в пасмурную погоду, а также при ветре 12 м/с и более поправка равна нулю.
P - Атмосферное давление - приведенное к уровню моря атмосферное давление.
Po - Атмосферное давление - измеренное на уровне метеостанции атмосферное давление.
Tmin - Минимальная температура - минимум температуры воздуха на высоте 2 м над землей.
Tmax - Максимальная температура - максимум температуры воздуха на высоте 2 м над землей.
R - Количество осадков - Количество выпавших осадков за период времени, мм. При наведении курсора мыши на число - период времени, за который выпало указанное количество осадков.
R24 - Количество осадков - Количество выпавших осадков за 24 часа, мм.
S - Снежный покров - Высота снежного покрова, см. При наведении курсора мыши на число - состояние снежного покрова и степень покрытия местности в баллах.